Location: Herm
(49.4830°N, 2.4500°W)
Time: 19:08:34
(UTC+00:00)

VELOX 1 - Pass Details

Date: 30 October 2021
Orbit: 627 x 641 km, 98.3° (Epoch: 03 December)

Event Time Altitude Azimuth Distance (km) Brightness Sun altitude
Rises 18:26:35 0° 9° (N) 2,955 ? -6.3°
Reaches altitude 10° 18:28:51 10° 4° (N) 2,043 ? -6.7°
Maximum altitude 18:33:07 47° 291° (WNW) 857 ? -7.4°
Drops below altitude 10° 18:37:22 10° 218° (SW) 2,033 ? -8.0°
Sets 18:39:37 0° 213° (SSW) 2,938 ? -8.4°
